Year,Month,Day,Hour,Minute,Value (Times are PST for temperature in C)
2010,07,07,00,00,20.70
2010,07,07,00,01,20.70
2010,07,07,00,02,20.70
2010,07,07,00,03,20.60
2010,07,07,00,04,20.60
2010,07,07,00,05,20.60
2010,07,07,00,06,20.60
2010,07,07,00,07,20.60
2010,07,07,00,08,20.50
2010,07,07,00,09,20.50
2010,07,07,00,10,20.50
2010,07,07,00,11,20.40
2010,07,07,00,12,20.40
2010,07,07,00,13,20.30
2010,07,07,00,14,20.30
2010,07,07,00,15,20.30
2010,07,07,00,16,20.20
2010,07,07,00,17,20.20
2010,07,07,00,18,20.20
2010,07,07,00,19,20.10
2010,07,07,00,20,20.10
2010,07,07,00,21,20.00
2010,07,07,00,22,20.00
2010,07,07,00,23,20.00
2010,07,07,00,24,19.90
2010,07,07,00,25,19.90
2010,07,07,00,26,19.90
2010,07,07,00,27,19.80
2010,07,07,00,28,19.80
2010,07,07,00,29,19.80
2010,07,07,00,30,19.80
2010,07,07,00,31,19.80
2010,07,07,00,32,19.80
2010,07,07,00,33,19.80
2010,07,07,00,34,19.80
2010,07,07,00,35,19.70
2010,07,07,00,36,19.70
2010,07,07,00,37,19.70
2010,07,07,00,38,19.70
2010,07,07,00,39,19.70
2010,07,07,00,40,19.70
2010,07,07,00,41,19.70
2010,07,07,00,42,19.60
2010,07,07,00,43,19.60
2010,07,07,00,44,19.60
2010,07,07,00,45,19.60
2010,07,07,00,46,19.60
2010,07,07,00,47,19.60
2010,07,07,00,48,19.60
2010,07,07,00,49,19.60
2010,07,07,00,50,19.60
2010,07,07,00,51,19.70
2010,07,07,00,52,19.70
2010,07,07,00,53,19.70
2010,07,07,00,54,19.70
2010,07,07,00,55,19.70
2010,07,07,00,56,19.70
2010,07,07,00,57,19.70
2010,07,07,00,58,19.70
2010,07,07,00,59,19.70
2010,07,07,01,00,19.70
2010,07,07,01,01,19.70
2010,07,07,01,02,19.70
2010,07,07,01,03,19.70
2010,07,07,01,04,19.70
2010,07,07,01,05,19.60
2010,07,07,01,06,19.60
2010,07,07,01,07,19.60
2010,07,07,01,08,19.60
2010,07,07,01,09,19.60
2010,07,07,01,10,19.60
2010,07,07,01,11,19.60
2010,07,07,01,12,19.50
2010,07,07,01,13,19.50
2010,07,07,01,14,19.40
2010,07,07,01,15,19.40
2010,07,07,01,16,19.40
2010,07,07,01,17,19.30
2010,07,07,01,18,19.30
2010,07,07,01,19,19.20
2010,07,07,01,20,19.20
2010,07,07,01,21,19.20
2010,07,07,01,22,19.10
2010,07,07,01,23,19.00
2010,07,07,01,24,18.90
2010,07,07,01,25,18.60
2010,07,07,01,26,18.30
2010,07,07,01,27,18.20
2010,07,07,01,28,17.90
2010,07,07,01,29,17.60
2010,07,07,01,30,17.40
2010,07,07,01,31,17.30
2010,07,07,01,32,17.20
2010,07,07,01,33,17.10
2010,07,07,01,34,17.00
2010,07,07,01,35,17.00
2010,07,07,01,36,16.90
2010,07,07,01,37,16.90
2010,07,07,01,38,16.80
2010,07,07,01,39,16.60
2010,07,07,01,40,16.50
2010,07,07,01,41,16.30
2010,07,07,01,42,16.20
2010,07,07,01,43,16.20
2010,07,07,01,44,16.10
2010,07,07,01,45,15.90
2010,07,07,01,46,15.80
2010,07,07,01,47,15.70
2010,07,07,01,48,15.70
2010,07,07,01,49,15.60
2010,07,07,01,50,15.60
2010,07,07,01,51,15.60
2010,07,07,01,52,15.50
2010,07,07,01,53,15.50
2010,07,07,01,54,15.50
2010,07,07,01,55,15.40
2010,07,07,01,56,15.40
2010,07,07,01,57,15.30
2010,07,07,01,58,15.30
2010,07,07,01,59,15.30
2010,07,07,02,00,15.30
2010,07,07,02,01,15.30
2010,07,07,02,02,15.30
2010,07,07,02,03,15.40
2010,07,07,02,04,15.30
2010,07,07,02,05,15.30
2010,07,07,02,06,15.30
2010,07,07,02,07,15.20
2010,07,07,02,08,15.20
2010,07,07,02,09,15.10
2010,07,07,02,10,15.00
2010,07,07,02,11,15.00
2010,07,07,02,12,15.00
2010,07,07,02,13,15.10
2010,07,07,02,14,15.20
2010,07,07,02,15,15.30
2010,07,07,02,16,15.40
2010,07,07,02,17,15.50
2010,07,07,02,18,15.50
2010,07,07,02,19,15.50
2010,07,07,02,20,15.50
2010,07,07,02,21,15.40
2010,07,07,02,22,15.40
2010,07,07,02,23,15.30
2010,07,07,02,24,15.20
2010,07,07,02,25,15.10
2010,07,07,02,26,15.10
2010,07,07,02,27,15.00
2010,07,07,02,28,15.00
2010,07,07,02,29,15.00
2010,07,07,02,30,15.00
2010,07,07,02,31,15.00
2010,07,07,02,32,15.00
2010,07,07,02,33,15.00
2010,07,07,02,34,14.90
2010,07,07,02,35,14.80
2010,07,07,02,36,14.80
2010,07,07,02,37,14.80
2010,07,07,02,38,14.80
2010,07,07,02,39,14.80
2010,07,07,02,40,14.70
2010,07,07,02,41,14.70
2010,07,07,02,42,14.60
2010,07,07,02,43,14.60
2010,07,07,02,44,14.60
2010,07,07,02,45,14.50
2010,07,07,02,46,14.50
2010,07,07,02,47,14.40
2010,07,07,02,48,14.40
2010,07,07,02,49,14.40
2010,07,07,02,50,14.40
2010,07,07,02,51,14.40
2010,07,07,02,52,14.30
2010,07,07,02,53,14.40
2010,07,07,02,54,14.40
2010,07,07,02,55,14.40
2010,07,07,02,56,14.50
2010,07,07,02,57,14.50
2010,07,07,02,58,14.50
2010,07,07,02,59,14.60
2010,07,07,03,00,14.60
2010,07,07,03,01,14.60
2010,07,07,03,02,14.60
2010,07,07,03,03,14.70
2010,07,07,03,04,14.60
2010,07,07,03,05,14.60
2010,07,07,03,06,14.60
2010,07,07,03,07,14.50
2010,07,07,03,08,14.40
2010,07,07,03,09,14.50
2010,07,07,03,10,14.70
2010,07,07,03,11,14.80
2010,07,07,03,12,14.80
2010,07,07,03,13,14.80
2010,07,07,03,14,14.80
2010,07,07,03,15,15.00
2010,07,07,03,16,15.00
2010,07,07,03,17,15.00
2010,07,07,03,18,15.00
2010,07,07,03,19,15.10
2010,07,07,03,20,15.10
2010,07,07,03,21,15.20
2010,07,07,03,22,15.10
2010,07,07,03,23,15.20
2010,07,07,03,24,15.20
2010,07,07,03,25,15.20
2010,07,07,03,26,15.20
2010,07,07,03,27,15.20
2010,07,07,03,28,15.10
2010,07,07,03,29,15.00
2010,07,07,03,30,15.00
2010,07,07,03,31,15.00
2010,07,07,03,32,15.00
2010,07,07,03,33,15.00
2010,07,07,03,34,15.00
2010,07,07,03,35,15.00
2010,07,07,03,36,15.00
2010,07,07,03,37,15.00
2010,07,07,03,38,15.00
2010,07,07,03,39,15.00
2010,07,07,03,40,15.00
2010,07,07,03,41,15.00
2010,07,07,03,42,15.30
2010,07,07,03,43,15.50
2010,07,07,03,44,15.70
2010,07,07,03,45,15.80
2010,07,07,03,46,15.90
2010,07,07,03,47,15.90
2010,07,07,03,48,15.90
2010,07,07,03,49,15.80
2010,07,07,03,50,15.80
2010,07,07,03,51,15.70
2010,07,07,03,52,15.70
2010,07,07,03,53,15.60
2010,07,07,03,54,15.50
2010,07,07,03,55,15.40
2010,07,07,03,56,15.30
2010,07,07,03,57,15.30
2010,07,07,03,58,15.20
2010,07,07,03,59,15.10
2010,07,07,04,00,15.00
2010,07,07,04,01,15.00
2010,07,07,04,02,14.90
2010,07,07,04,03,14.80
2010,07,07,04,04,14.70
2010,07,07,04,05,14.60
2010,07,07,04,06,14.60
2010,07,07,04,07,14.50
2010,07,07,04,08,14.40
2010,07,07,04,09,14.40
2010,07,07,04,10,14.50
2010,07,07,04,11,14.50
2010,07,07,04,12,14.50
2010,07,07,04,13,14.50
2010,07,07,04,14,14.60
2010,07,07,04,15,14.60
2010,07,07,04,16,14.60
2010,07,07,04,17,14.60
2010,07,07,04,18,14.60
2010,07,07,04,19,14.70
2010,07,07,04,20,14.70
2010,07,07,04,21,14.70
2010,07,07,04,22,14.70
2010,07,07,04,23,14.70
2010,07,07,04,24,14.70
2010,07,07,04,25,14.70
2010,07,07,04,26,14.80
2010,07,07,04,27,14.90
2010,07,07,04,28,15.00
2010,07,07,04,29,15.00
2010,07,07,04,30,15.00
2010,07,07,04,31,14.90
2010,07,07,04,32,14.80
2010,07,07,04,33,14.80
2010,07,07,04,34,14.70
2010,07,07,04,35,14.60
2010,07,07,04,36,14.50
2010,07,07,04,37,14.40
2010,07,07,04,38,14.30
2010,07,07,04,39,14.30
2010,07,07,04,40,14.20
2010,07,07,04,41,14.20
2010,07,07,04,42,14.20
2010,07,07,04,43,14.20
2010,07,07,04,44,14.30
2010,07,07,04,45,14.30
2010,07,07,04,46,14.30
2010,07,07,04,47,14.30
2010,07,07,04,48,14.40
2010,07,07,04,49,14.40
2010,07,07,04,50,14.40
2010,07,07,04,51,14.50
2010,07,07,04,52,14.50
2010,07,07,04,53,14.60
2010,07,07,04,54,14.60
2010,07,07,04,55,14.60
2010,07,07,04,56,14.60
2010,07,07,04,57,14.60
2010,07,07,04,58,14.60
2010,07,07,04,59,14.60
2010,07,07,05,00,14.70
2010,07,07,05,01,14.70
2010,07,07,05,02,14.60
2010,07,07,05,03,14.60
2010,07,07,05,04,14.60
2010,07,07,05,05,14.50
2010,07,07,05,06,14.40
2010,07,07,05,07,14.40
2010,07,07,05,08,14.40
2010,07,07,05,09,14.40
2010,07,07,05,10,14.40
2010,07,07,05,11,14.40
2010,07,07,05,12,14.40
2010,07,07,05,13,14.40
2010,07,07,05,14,14.40
2010,07,07,05,15,14.30
2010,07,07,05,16,14.30
2010,07,07,05,17,14.40
2010,07,07,05,18,14.40
2010,07,07,05,19,14.40
2010,07,07,05,20,14.30
2010,07,07,05,21,14.30
2010,07,07,05,22,14.30
2010,07,07,05,23,14.20
2010,07,07,05,24,14.10
2010,07,07,05,25,14.10
2010,07,07,05,26,14.00
2010,07,07,05,27,14.00
2010,07,07,05,28,14.00
2010,07,07,05,29,13.90
2010,07,07,05,30,14.00
2010,07,07,05,31,14.00
2010,07,07,05,32,14.10
2010,07,07,05,33,14.00
2010,07,07,05,34,14.00
2010,07,07,05,35,14.00
2010,07,07,05,36,14.00
2010,07,07,05,37,14.00
2010,07,07,05,38,14.00
2010,07,07,05,39,14.00
2010,07,07,05,40,14.00
2010,07,07,05,41,14.00
2010,07,07,05,42,13.90
2010,07,07,05,43,13.90
2010,07,07,05,44,13.90
2010,07,07,05,45,13.80
2010,07,07,05,46,13.70
2010,07,07,05,47,13.70
2010,07,07,05,48,13.80
2010,07,07,05,49,13.80
2010,07,07,05,50,13.80
2010,07,07,05,51,13.90
2010,07,07,05,52,13.90
2010,07,07,05,53,14.00
2010,07,07,05,54,14.00
2010,07,07,05,55,14.10
2010,07,07,05,56,14.10
2010,07,07,05,57,14.10
2010,07,07,05,58,14.10
2010,07,07,05,59,14.10
2010,07,07,06,00,14.10
2010,07,07,06,01,14.20
2010,07,07,06,02,14.20
2010,07,07,06,03,14.20
2010,07,07,06,04,14.20
2010,07,07,06,05,14.30
2010,07,07,06,06,14.30
2010,07,07,06,07,14.30
2010,07,07,06,08,14.30
2010,07,07,06,09,14.40
2010,07,07,06,10,14.50
2010,07,07,06,11,14.60
2010,07,07,06,12,14.70
2010,07,07,06,13,14.80
2010,07,07,06,14,14.90
2010,07,07,06,15,15.00
2010,07,07,06,16,15.00
2010,07,07,06,17,15.00
2010,07,07,06,18,15.00
2010,07,07,06,19,15.20
2010,07,07,06,20,15.30
2010,07,07,06,21,15.50
2010,07,07,06,22,15.60
2010,07,07,06,23,15.70
2010,07,07,06,24,15.80
2010,07,07,06,25,15.80
2010,07,07,06,26,15.80
2010,07,07,06,27,15.80
2010,07,07,06,28,15.80
2010,07,07,06,29,15.80
2010,07,07,06,30,15.90
2010,07,07,06,31,15.90
2010,07,07,06,32,15.90
2010,07,07,06,33,16.00
2010,07,07,06,34,16.10
2010,07,07,06,35,16.20
2010,07,07,06,36,16.30
2010,07,07,06,37,16.30
2010,07,07,06,38,16.50
2010,07,07,06,39,16.60
2010,07,07,06,40,16.60
2010,07,07,06,41,16.70
2010,07,07,06,42,16.80
2010,07,07,06,43,16.90
2010,07,07,06,44,16.90
2010,07,07,06,45,17.00
2010,07,07,06,46,17.10
2010,07,07,06,47,17.20
2010,07,07,06,48,17.30
2010,07,07,06,49,17.40
2010,07,07,06,50,17.50
2010,07,07,06,51,17.60
2010,07,07,06,52,17.70
2010,07,07,06,53,17.70
2010,07,07,06,54,17.70
2010,07,07,06,55,17.80
2010,07,07,06,56,17.90
2010,07,07,06,57,18.00
2010,07,07,06,58,18.00
2010,07,07,06,59,18.10
2010,07,07,07,00,18.20
2010,07,07,07,01,18.30
2010,07,07,07,02,18.30
2010,07,07,07,03,18.40
2010,07,07,07,04,18.40
2010,07,07,07,05,18.50
2010,07,07,07,06,18.50
2010,07,07,07,07,18.60
2010,07,07,07,08,18.60
2010,07,07,07,09,18.70
2010,07,07,07,10,18.80
2010,07,07,07,11,18.80
2010,07,07,07,12,18.90
2010,07,07,07,13,18.90
2010,07,07,07,14,18.90
2010,07,07,07,15,19.00
2010,07,07,07,16,19.10
2010,07,07,07,17,19.10
2010,07,07,07,18,19.20
2010,07,07,07,19,19.20
2010,07,07,07,20,19.30
2010,07,07,07,21,19.30
2010,07,07,07,22,19.30
2010,07,07,07,23,19.30
2010,07,07,07,24,19.30
2010,07,07,07,25,19.40
2010,07,07,07,26,19.40
2010,07,07,07,27,19.40
2010,07,07,07,28,19.40
2010,07,07,07,29,19.50
2010,07,07,07,30,19.50
2010,07,07,07,31,19.50
2010,07,07,07,32,19.50
2010,07,07,07,33,19.50
2010,07,07,07,34,19.50
2010,07,07,07,35,19.50
2010,07,07,07,36,19.50
2010,07,07,07,37,19.50
2010,07,07,07,38,19.50
2010,07,07,07,39,19.50
2010,07,07,07,40,19.50
2010,07,07,07,41,19.50
2010,07,07,07,42,19.50
2010,07,07,07,43,19.60
2010,07,07,07,44,19.60
2010,07,07,07,45,19.60
2010,07,07,07,46,19.60
2010,07,07,07,47,19.60
2010,07,07,07,48,19.60
2010,07,07,07,49,19.60
2010,07,07,07,50,19.60
2010,07,07,07,51,19.50
2010,07,07,07,52,19.50
2010,07,07,07,53,19.50
2010,07,07,07,54,19.50
2010,07,07,07,55,19.50
2010,07,07,07,56,19.50
2010,07,07,07,57,19.50
2010,07,07,07,58,19.50
2010,07,07,07,59,19.50
2010,07,07,08,00,19.60
2010,07,07,08,01,19.60
2010,07,07,08,02,19.60
2010,07,07,08,03,19.70
2010,07,07,08,04,19.70
2010,07,07,08,05,19.70
2010,07,07,08,06,19.60
2010,07,07,08,07,19.60
2010,07,07,08,08,19.60
2010,07,07,08,09,19.60
2010,07,07,08,10,19.60
2010,07,07,08,11,19.50
2010,07,07,08,12,19.50
2010,07,07,08,13,19.50
2010,07,07,08,14,19.50
2010,07,07,08,15,19.60
2010,07,07,08,16,19.60
2010,07,07,08,17,19.70
2010,07,07,08,18,19.80
2010,07,07,08,19,19.90
2010,07,07,08,20,20.00
2010,07,07,08,21,20.00
2010,07,07,08,22,20.00
2010,07,07,08,23,20.00
2010,07,07,08,24,19.90
2010,07,07,08,25,19.90
2010,07,07,08,26,19.80
2010,07,07,08,27,19.80
2010,07,07,08,28,19.90
2010,07,07,08,29,19.90
2010,07,07,08,30,19.90
2010,07,07,08,31,19.90
2010,07,07,08,32,19.90
2010,07,07,08,33,19.80
2010,07,07,08,34,19.80
2010,07,07,08,35,19.80
2010,07,07,08,36,19.80
2010,07,07,08,37,19.80
2010,07,07,08,38,19.80
2010,07,07,08,39,19.80
2010,07,07,08,40,19.80
2010,07,07,08,41,19.80
2010,07,07,08,42,19.90
2010,07,07,08,43,19.90
2010,07,07,08,44,19.90
2010,07,07,08,45,19.80
2010,07,07,08,46,19.80
2010,07,07,08,47,19.80
2010,07,07,08,48,19.80
2010,07,07,08,49,19.80
2010,07,07,08,50,19.90
2010,07,07,08,51,20.00
2010,07,07,08,52,20.10
2010,07,07,08,53,20.20
2010,07,07,08,54,20.20
2010,07,07,08,55,20.20
2010,07,07,08,56,20.30
2010,07,07,08,57,20.20
2010,07,07,08,58,20.20
2010,07,07,08,59,20.20
2010,07,07,09,00,20.20
2010,07,07,09,01,20.20
2010,07,07,09,02,20.20
2010,07,07,09,03,20.20
2010,07,07,09,04,20.30
2010,07,07,09,05,20.30
2010,07,07,09,06,20.40
2010,07,07,09,07,20.40
2010,07,07,09,08,20.50
2010,07,07,09,09,20.50
2010,07,07,09,10,20.60
2010,07,07,09,11,20.70
2010,07,07,09,12,20.70
2010,07,07,09,13,20.70
2010,07,07,09,14,20.70
2010,07,07,09,15,20.70
2010,07,07,09,16,20.70
2010,07,07,09,17,20.80
2010,07,07,09,18,20.80
2010,07,07,09,19,20.80
2010,07,07,09,20,20.80
2010,07,07,09,21,20.90
2010,07,07,09,22,20.90
2010,07,07,09,23,21.00
2010,07,07,09,24,21.10
2010,07,07,09,25,21.10
2010,07,07,09,26,21.10
2010,07,07,09,27,21.00
2010,07,07,09,28,21.00
2010,07,07,09,29,20.90
2010,07,07,09,30,20.80
2010,07,07,09,31,20.80
2010,07,07,09,32,20.80
2010,07,07,09,33,20.70
2010,07,07,09,34,20.70
2010,07,07,09,35,20.80
2010,07,07,09,36,20.80
2010,07,07,09,37,20.80
2010,07,07,09,38,20.80
2010,07,07,09,39,20.90
2010,07,07,09,40,20.90
2010,07,07,09,41,20.90
2010,07,07,09,42,21.00
2010,07,07,09,43,21.10
2010,07,07,09,44,21.10
2010,07,07,09,45,21.20
2010,07,07,09,46,21.20
2010,07,07,09,47,21.20
2010,07,07,09,48,21.10
2010,07,07,09,49,21.00
2010,07,07,09,50,20.80
2010,07,07,09,51,20.80
2010,07,07,09,52,20.80
2010,07,07,09,53,20.80
2010,07,07,09,54,20.80
2010,07,07,09,55,20.80
2010,07,07,09,56,20.80
2010,07,07,09,57,20.70
2010,07,07,09,58,20.80
2010,07,07,09,59,20.70
2010,07,07,10,00,20.60
2010,07,07,10,01,20.50
2010,07,07,10,02,20.40
2010,07,07,10,03,20.30
2010,07,07,10,04,20.20
2010,07,07,10,05,20.20
2010,07,07,10,06,20.20
2010,07,07,10,07,20.10
2010,07,07,10,08,20.10
2010,07,07,10,09,20.10
2010,07,07,10,10,20.00
2010,07,07,10,11,19.90
2010,07,07,10,12,19.90
2010,07,07,10,13,19.90
2010,07,07,10,14,19.80
2010,07,07,10,15,19.80
2010,07,07,10,16,19.80
2010,07,07,10,17,19.80
2010,07,07,10,18,19.80
2010,07,07,10,19,19.80
2010,07,07,10,20,19.80
2010,07,07,10,21,19.80
2010,07,07,10,22,19.80
2010,07,07,10,23,19.80
2010,07,07,10,24,19.80
2010,07,07,10,25,19.80
2010,07,07,10,26,19.80
2010,07,07,10,27,19.80
2010,07,07,10,28,19.70
2010,07,07,10,29,19.70
2010,07,07,10,30,19.70
2010,07,07,10,31,19.70
2010,07,07,10,32,19.80
2010,07,07,10,33,19.90
2010,07,07,10,34,19.90
2010,07,07,10,35,20.00
2010,07,07,10,36,20.10
2010,07,07,10,37,20.20
2010,07,07,10,38,20.20
2010,07,07,10,39,20.20
2010,07,07,10,40,20.20
2010,07,07,10,41,20.20
2010,07,07,10,42,20.30
2010,07,07,10,43,20.40
2010,07,07,10,44,20.50
2010,07,07,10,45,20.60
2010,07,07,10,46,20.70
2010,07,07,10,47,20.70
2010,07,07,10,48,20.70
2010,07,07,10,49,20.80
2010,07,07,10,50,20.80
2010,07,07,10,51,20.80
2010,07,07,10,52,20.90
2010,07,07,10,53,20.90
2010,07,07,10,54,21.00
2010,07,07,10,55,21.00
2010,07,07,10,56,21.10
2010,07,07,10,57,21.10
2010,07,07,10,58,21.20
2010,07,07,10,59,21.20
2010,07,07,11,00,21.30
2010,07,07,11,01,21.30
2010,07,07,11,02,21.40
2010,07,07,11,03,21.60
2010,07,07,11,04,21.70
2010,07,07,11,05,21.70
2010,07,07,11,06,21.70
2010,07,07,11,07,21.70
2010,07,07,11,08,21.60
2010,07,07,11,09,21.70
2010,07,07,11,10,21.70
2010,07,07,11,11,21.70
2010,07,07,11,12,21.80
2010,07,07,11,13,21.70
2010,07,07,11,14,21.70
2010,07,07,11,15,21.70
2010,07,07,11,16,21.70
2010,07,07,11,17,21.70
2010,07,07,11,18,21.70
2010,07,07,11,19,21.80
2010,07,07,11,20,21.80
2010,07,07,11,21,21.80
2010,07,07,11,22,21.80
2010,07,07,11,23,21.70
2010,07,07,11,24,21.60
2010,07,07,11,25,21.50
2010,07,07,11,26,21.40
2010,07,07,11,27,21.40
2010,07,07,11,28,21.30
2010,07,07,11,29,21.30
2010,07,07,11,30,21.30
2010,07,07,11,31,21.30
2010,07,07,11,32,21.30
2010,07,07,11,33,21.40
2010,07,07,11,34,21.40
2010,07,07,11,35,21.50
2010,07,07,11,36,21.60
2010,07,07,11,37,21.70
2010,07,07,11,38,21.70
2010,07,07,11,39,21.80
2010,07,07,11,40,21.90
2010,07,07,11,41,22.00
2010,07,07,11,42,22.00
2010,07,07,11,43,22.10
2010,07,07,11,44,22.20
2010,07,07,11,45,22.20
2010,07,07,11,46,22.30
2010,07,07,11,47,22.30
2010,07,07,11,48,22.30
2010,07,07,11,49,22.30
2010,07,07,11,50,22.40
2010,07,07,11,51,22.40
2010,07,07,11,52,22.50
2010,07,07,11,53,22.50
2010,07,07,11,54,22.50
2010,07,07,11,55,22.40
2010,07,07,11,56,22.50
2010,07,07,11,57,22.50
2010,07,07,11,58,22.60
2010,07,07,11,59,22.60
2010,07,07,12,00,22.60
2010,07,07,12,01,22.70
2010,07,07,12,02,22.80
2010,07,07,12,03,22.80
2010,07,07,12,04,22.80
2010,07,07,12,05,22.70
2010,07,07,12,06,22.60
2010,07,07,12,07,22.60
2010,07,07,12,08,22.50
2010,07,07,12,09,22.50
2010,07,07,12,10,22.50
2010,07,07,12,11,22.50
2010,07,07,12,12,22.50
2010,07,07,12,13,22.50
2010,07,07,12,14,22.50
2010,07,07,12,15,22.50
2010,07,07,12,16,22.50
2010,07,07,12,17,22.50
2010,07,07,12,18,22.60
2010,07,07,12,19,22.60
2010,07,07,12,20,22.70
2010,07,07,12,21,22.70
2010,07,07,12,22,22.80
2010,07,07,12,23,22.90
2010,07,07,12,24,23.00
2010,07,07,12,25,23.10
2010,07,07,12,26,23.20
2010,07,07,12,27,23.30
2010,07,07,12,28,23.20
2010,07,07,12,29,23.20
2010,07,07,12,30,23.10
2010,07,07,12,31,23.00
2010,07,07,12,32,23.00
2010,07,07,12,33,23.00
2010,07,07,12,34,22.90
2010,07,07,12,35,22.90
2010,07,07,12,36,23.00
2010,07,07,12,37,23.20
2010,07,07,12,38,23.30
2010,07,07,12,39,23.30
2010,07,07,12,40,23.30
2010,07,07,12,41,23.30
2010,07,07,12,42,23.30
2010,07,07,12,43,23.40
2010,07,07,12,44,23.40
2010,07,07,12,45,23.50
2010,07,07,12,46,23.50
2010,07,07,12,47,23.50
2010,07,07,12,48,23.60
2010,07,07,12,49,23.60
2010,07,07,12,50,23.70
2010,07,07,12,51,23.70
2010,07,07,12,52,23.80
2010,07,07,12,53,23.90
2010,07,07,12,54,24.00
2010,07,07,12,55,24.10
2010,07,07,12,56,24.10
2010,07,07,12,57,24.10
2010,07,07,12,58,24.20
2010,07,07,12,59,24.30
2010,07,07,13,00,24.30
2010,07,07,13,01,24.40
2010,07,07,13,02,24.50
2010,07,07,13,03,24.50
2010,07,07,13,04,24.40
2010,07,07,13,05,24.30
2010,07,07,13,06,24.20
2010,07,07,13,07,24.10
2010,07,07,13,08,24.00
2010,07,07,13,09,23.80
2010,07,07,13,10,23.70
2010,07,07,13,11,23.60
2010,07,07,13,12,23.50
2010,07,07,13,13,23.40
2010,07,07,13,14,23.30
2010,07,07,13,15,23.20
2010,07,07,13,16,23.10
2010,07,07,13,17,23.10
2010,07,07,13,18,23.00
2010,07,07,13,19,23.00
2010,07,07,13,20,23.00
2010,07,07,13,21,23.10
2010,07,07,13,22,23.10
2010,07,07,13,23,23.00
2010,07,07,13,24,23.00
2010,07,07,13,25,22.90
2010,07,07,13,26,22.80
2010,07,07,13,27,22.80
2010,07,07,13,28,22.80
2010,07,07,13,29,22.80
2010,07,07,13,30,22.90
2010,07,07,13,31,23.00
2010,07,07,13,32,23.10
2010,07,07,13,33,23.20
2010,07,07,13,34,23.30
2010,07,07,13,35,23.40
2010,07,07,13,36,23.50
2010,07,07,13,37,23.60
2010,07,07,13,38,23.70
2010,07,07,13,39,23.70
2010,07,07,13,40,23.80
2010,07,07,13,41,23.90
2010,07,07,13,42,24.10
2010,07,07,13,43,24.20
2010,07,07,13,44,24.30
2010,07,07,13,45,24.40
2010,07,07,13,46,24.50
2010,07,07,13,47,24.60
2010,07,07,13,48,24.60
2010,07,07,13,49,24.70
2010,07,07,13,50,24.80
2010,07,07,13,51,24.70
2010,07,07,13,52,24.70
2010,07,07,13,53,24.80
2010,07,07,13,54,24.80
2010,07,07,13,55,24.90
2010,07,07,13,56,25.00
2010,07,07,13,57,25.00
2010,07,07,13,58,25.10
2010,07,07,13,59,25.20
2010,07,07,14,00,25.30
2010,07,07,14,01,25.30
2010,07,07,14,02,25.30
2010,07,07,14,03,25.40
2010,07,07,14,04,25.40
2010,07,07,14,05,25.40
2010,07,07,14,06,25.50
2010,07,07,14,07,25.50
2010,07,07,14,08,25.50
2010,07,07,14,09,25.60
2010,07,07,14,10,25.60
2010,07,07,14,11,25.70
2010,07,07,14,12,25.80
2010,07,07,14,13,25.80
2010,07,07,14,14,25.90
2010,07,07,14,15,25.90
2010,07,07,14,16,25.90
2010,07,07,14,17,25.80
2010,07,07,14,18,25.70
2010,07,07,14,19,25.60
2010,07,07,14,20,25.60
2010,07,07,14,21,25.60
2010,07,07,14,22,25.70
2010,07,07,14,23,25.80
2010,07,07,14,24,25.90
2010,07,07,14,25,26.00
2010,07,07,14,26,26.10
2010,07,07,14,27,26.20
2010,07,07,14,28,26.20
2010,07,07,14,29,26.30
2010,07,07,14,30,26.40
2010,07,07,14,31,26.40
2010,07,07,14,32,26.50
2010,07,07,14,33,26.50
2010,07,07,14,34,26.50
2010,07,07,14,35,26.50
2010,07,07,14,36,26.50
2010,07,07,14,37,26.60
2010,07,07,14,38,26.60
2010,07,07,14,39,26.70
2010,07,07,14,40,26.70
2010,07,07,14,41,26.70
2010,07,07,14,42,26.70
2010,07,07,14,43,26.70
2010,07,07,14,44,26.60
2010,07,07,14,45,26.50
2010,07,07,14,46,26.50
2010,07,07,14,47,26.40
2010,07,07,14,48,26.30
2010,07,07,14,49,26.30
2010,07,07,14,50,26.30
2010,07,07,14,51,26.30
2010,07,07,14,52,26.30
2010,07,07,14,53,26.30
2010,07,07,14,54,26.30
2010,07,07,14,55,26.30
2010,07,07,14,56,26.30
2010,07,07,14,57,26.30
2010,07,07,14,58,26.20
2010,07,07,14,59,26.20
2010,07,07,15,00,26.30
2010,07,07,15,01,26.30
2010,07,07,15,02,26.20
2010,07,07,15,03,26.20
2010,07,07,15,04,26.20
2010,07,07,15,05,26.20
2010,07,07,15,06,26.20
2010,07,07,15,07,26.30
2010,07,07,15,08,26.30
2010,07,07,15,09,26.20
2010,07,07,15,10,26.20
2010,07,07,15,11,26.20
2010,07,07,15,12,26.30
2010,07,07,15,13,26.30
2010,07,07,15,14,26.40
2010,07,07,15,15,26.50
2010,07,07,15,16,26.50
2010,07,07,15,17,26.60
2010,07,07,15,18,26.60
2010,07,07,15,19,26.60
2010,07,07,15,20,26.70
2010,07,07,15,21,26.70
2010,07,07,15,22,26.60
2010,07,07,15,23,26.50
2010,07,07,15,24,26.40
2010,07,07,15,25,26.30
2010,07,07,15,26,26.30
2010,07,07,15,27,26.30
2010,07,07,15,28,26.30
2010,07,07,15,29,26.30
2010,07,07,15,30,26.40
2010,07,07,15,31,26.40
2010,07,07,15,32,26.40
2010,07,07,15,33,26.50
2010,07,07,15,34,26.60
2010,07,07,15,35,26.60
2010,07,07,15,36,26.60
2010,07,07,15,37,26.70
2010,07,07,15,38,26.70
2010,07,07,15,39,26.70
2010,07,07,15,40,26.80
2010,07,07,15,41,26.80
2010,07,07,15,42,26.80
2010,07,07,15,43,26.80
2010,07,07,15,44,26.80
2010,07,07,15,45,26.80
2010,07,07,15,46,26.80
2010,07,07,15,47,26.70
2010,07,07,15,48,26.70
2010,07,07,15,49,26.70
2010,07,07,15,50,26.80
2010,07,07,15,51,26.80
2010,07,07,15,52,26.80
2010,07,07,15,53,26.80
2010,07,07,15,54,26.90
2010,07,07,15,55,26.80
2010,07,07,15,56,26.80
2010,07,07,15,57,26.80
2010,07,07,15,58,26.80
2010,07,07,15,59,26.80
2010,07,07,16,00,26.70
2010,07,07,16,01,26.70
2010,07,07,16,02,26.70
2010,07,07,16,03,26.70
2010,07,07,16,04,26.70
2010,07,07,16,05,26.70
2010,07,07,16,06,26.70
2010,07,07,16,07,26.70
2010,07,07,16,08,26.70
2010,07,07,16,09,26.70
2010,07,07,16,10,26.70
2010,07,07,16,11,26.70
2010,07,07,16,12,26.70
2010,07,07,16,13,26.80
2010,07,07,16,14,26.80
2010,07,07,16,15,26.80
2010,07,07,16,16,26.80
2010,07,07,16,17,26.90
2010,07,07,16,18,26.90
2010,07,07,16,19,26.90
2010,07,07,16,20,26.90
2010,07,07,16,21,26.90
2010,07,07,16,22,27.00
2010,07,07,16,23,27.00
2010,07,07,16,24,27.00
2010,07,07,16,25,27.00
2010,07,07,16,26,27.10
2010,07,07,16,27,27.10
2010,07,07,16,28,27.10
2010,07,07,16,29,27.10
2010,07,07,16,30,27.20
2010,07,07,16,31,27.30
2010,07,07,16,32,27.30
2010,07,07,16,33,27.30
2010,07,07,16,34,27.20
2010,07,07,16,35,27.20
2010,07,07,16,36,27.20
2010,07,07,16,37,27.20
2010,07,07,16,38,27.10
2010,07,07,16,39,27.10
2010,07,07,16,40,27.10
2010,07,07,16,41,27.10
2010,07,07,16,42,27.20
2010,07,07,16,43,27.20
2010,07,07,16,44,27.20
2010,07,07,16,45,27.20
2010,07,07,16,46,27.30
2010,07,07,16,47,27.40
2010,07,07,16,48,27.50
2010,07,07,16,49,27.60
2010,07,07,16,50,27.60
2010,07,07,16,51,27.60
2010,07,07,16,52,27.70
2010,07,07,16,53,27.80
2010,07,07,16,54,27.80
2010,07,07,16,55,27.90
2010,07,07,16,56,27.90
2010,07,07,16,57,27.90
2010,07,07,16,58,28.00
2010,07,07,16,59,28.00
2010,07,07,17,00,28.00
2010,07,07,17,01,28.00
2010,07,07,17,02,28.00
2010,07,07,17,03,28.00
2010,07,07,17,04,28.10
2010,07,07,17,05,28.10
2010,07,07,17,06,28.10
2010,07,07,17,07,28.10
2010,07,07,17,08,28.10
2010,07,07,17,09,28.10
2010,07,07,17,10,28.00
2010,07,07,17,11,28.00
2010,07,07,17,12,28.00
2010,07,07,17,13,28.00
2010,07,07,17,14,28.00
2010,07,07,17,15,28.00
2010,07,07,17,16,28.00
2010,07,07,17,17,27.90
2010,07,07,17,18,27.90
2010,07,07,17,19,28.00